Regional Weather Roundup
Issued by NWS

Home | Current Version | Previous Version | Graphics & Text | Print | Product List | Glossary On
Versions: 1 2 3 4 5 6 7 8 9 10 11 12 13 14 15 16 17 18 19 20 21 22 23 24 25 26 27 28 29 30 31 32 33 34 35 36 37 38 39 40 41 42 43 44 45 46 47 48 49 50
000
ASUS43 KLOT 211306
RWRIL

ILLINOIS REGIONAL WEATHER ROUNDUP
NATIONAL WEATHER SERVICE CHICAGO/ROMEOVILLE IL
700 AM CST SUN DEC 21 2014

NOTE: "FAIR" INDICATES FEW OR NO CLOUDS BELOW 12,000 FEET WITH NO
SIGNIFICANT WEATHER AND/OR OBSTRUCTIONS TO VISIBILITY.

* THESE STATIONS ARE NOT UNDER NWS QUALITY CONTROL. THEY ALSO MAY NOT
  REPORT WEATHER SUCH AS PRECIPITATION OR FOG.

ILZ001-002-007-009-015-016-024-211400-
NORTHWEST ILLINOIS

CITY           SKY/WX    TMP DP  RH WIND       PRES   REMARKS
MOLINE         CLOUDY    36  33  89 S5        30.12F WCI  32
STERLING*      CLOUDY    34  28  80 S5        30.15F WCI  30
SAVANNA*       CLOUDY    34  32  92 S6        30.13F FOG     WCI  29
$$

ILZ003-004-008-010-011-017-018-211400-
NORTH CENTRAL ILLINOIS

CITY           SKY/WX    TMP DP  RH WIND       PRES   REMARKS
ROCKFORD       CLOUDY    33  29  85 S12       30.18S WCI  24
FREEPORT*      CLOUDY    32  31  95 S12       30.16S FOG     WCI  23
ROCHELLE*      CLOUDY    32  30  93 S14       30.17S FOG     WCI  22
DE KALB*       MIX PCPN  30  28  94 S10       30.19R WCI  21
PERU*          CLOUDY    34  31  89 S10       30.19S WCI  26
$$

ILZ005-006-012>014-019>023-211400-
NORTHEAST ILLINOIS

CITY           SKY/WX    TMP DP  RH WIND       PRES   REMARKS
CHICAGO-OHARE  CLOUDY    32  27  81 S9        30.21R WCI  24
CHICAGO-MIDWAY CLOUDY    34  27  75 S9        30.23R WCI  27
AURORA         CLOUDY    33  27  78 SE10      30.20S HAZE    WCI  25
LANSING*       CLOUDY    32  27  82 S8        30.24S WCI  25
JOLIET*        CLOUDY    32  28  84 SE7       30.22S WCI  26
WAUKEGAN       CLOUDY    32  27  81 SW6       30.19S WCI  26
DUPAGE AIRPORT CLOUDY    32  28  85 S7        30.19S WCI  26
KANKAKEE*      CLOUDY    32  28  86 S8        30.25R WCI  25
WHEELING       CLOUDY    33  27  78 S10       30.22S WCI  25
MORRIS*        CLOUDY    32  31  94 S8        30.21S WCI  25
ROMEOVILLE*    CLOUDY    32  28  86 S10       30.22S WCI  23
NORTHERLY ISL    N/A     33  26  76 S8          N/A  WCI  26
$$

LMZ740>746-211400-
SOUTHERN LAKE MICHIGAN

STATION/POSITION SKY/WX   TEMP    WIND        PRES    VSBY  WAVE
                          AIR SEA DIR/SP/G                  HT/PER
                          (F)     (DEG/KT/KT) (MB)    (MI)  (FT/S)
WAUKEGAN HARBOR            33     170/ 12/ 14   N/A
HARRISON CRIB              33     180/ 17/ 18   N/A
BURNHAM HARBOR             33     200/  4/ 10   N/A
CALUMET HARBOR             33     180/  7/ 11 1022.4R
$$

ILZ025>027-034>036-040-047-049-050-058-095>099-211400-
WEST-CENTRAL ILLINOIS

CITY           SKY/WX    TMP DP  RH WIND       PRES   REMARKS
QUINCY         CLOUDY    38  34  85 SE7       30.15S WCI  33
GALESBURG*     CLOUDY    34  33  95 SE6       30.15S FOG     WCI  29
MACOMB*        CLOUDY    36  35  94 S9        30.19R FOG     WCI  29
JACKSONVILLE*  CLOUDY    40  34  81 SE8       30.19S
PITTSFIELD*    CLOUDY    38  35  87 SE6       30.18S WCI  34
$$

ILZ028>032-037-038-041>044-048-051>054-059>061-211400-
CENTRAL ILLINOIS

CITY           SKY/WX    TMP DP  RH WIND       PRES   REMARKS
PONTIAC        CLOUDY    34  31  90 S13       30.22S WCI  25
BLOOMINGTON    CLOUDY    32  30  92 SE8       30.22S FOG     WCI  25
DECATUR        CLOUDY    33  29  85 S9        30.23S WCI  25
PEORIA         CLOUDY    36  30  79 S6        30.19S WCI  31
LACON*         CLOUDY    33  29  85 S6        30.18S WCI  28
LINCOLN*       CLOUDY    35  32  89 S5        30.22S WCI  31
SPRINGFIELD    CLOUDY    38  32  79 S10       30.21S WCI  31
TAYLORVILLE    CLOUDY    34  30  86 SE9       30.23S WCI  26
$$

ILZ033-039-045-046-055>057-062-063-211400-
EAST-CENTRAL ILLINOIS

CITY           SKY/WX    TMP DP  RH WIND       PRES   REMARKS
CHAMPAIGN      CLOUDY    31  27  85 SE7       30.24S FOG     WCI  24
DANVILLE*      CLOUDY    29  26  90 SE8       30.23S WCI  21
RANTOUL*       CLOUDY    32  30  90 SE8       30.25S WCI  25
MATTOON        CLOUDY    30  26  85 S10       30.25R WCI  21
PARIS*         CLOUDY    29  28  93 SE6       30.28S WCI  23
$$

ILZ079-100>102-211400-
SOUTHWEST ILLINOIS

CITY           SKY/WX    TMP DP  RH WIND       PRES   REMARKS
ALTON          CLOUDY    37  32  81 SE9       30.23R WCI  31
BELLEVILLE     CLOUDY    37  32  85 SE8       30.23S WCI  30
CAHOKIA*       CLOUDY    39  33  79 SE7       30.23S WCI  34
SPARTA*        CLOUDY    34  30  86 SE3       30.25F
$$

ILZ064>066-069>071-074>076-080>082-084>086-088>090-092>094-211400-
SOUTH-CENTRAL ILLINOIS

CITY           SKY/WX    TMP DP  RH WIND       PRES   REMARKS
CARBONDALE     CLEAR     27  25  92 CALM      30.26S
CAIRO*         CLEAR     29  29 100 NE3       30.26S FOG
EFFINGHAM*     CLOUDY    32  26  77 SE7       30.29S HAZE    WCI  26
MARION         PTCLDY    28  25  86 SE7       30.26F WCI  21
MT. VERNON     CLOUDY    30  25  80 CALM      30.27S
CENTRALIA*     CLOUDY    33  27  79 SE5       30.25F WCI  28
SALEM*         CLOUDY    35  28  78 SE6       30.26S WCI  30
METROPOLIS*    CLEAR     24  24 100 CALM      30.25S FOG
$$

ILZ067-068-072-073-078-083-087-091-211400-
SOUTHEAST ILLINOIS

CITY           SKY/WX    TMP DP  RH WIND       PRES   REMARKS
LAWRENCEVILLE  CLEAR     23  21  92 E6        30.31R FOG     WCI  16
FLORA*         CLEAR     30  27  88 SE5       30.29R FOG     WCI  25
FAIRFIELD*     CLEAR     26  24  93 CALM      30.27S FOG
HARRISBURG*    CLEAR     27  27 100 E3        30.28F FOG
ROBINSON*      PTCLDY    24  23  99 CALM      30.31R FOG
CARMI*         CLEAR     24  24 100 CALM      30.28R FOG
$$

ABBREVIATIONS USED IN REMARKS
   TC - TEMPERATURE IN CELSIUS
  WCI - WIND CHILL INDEX
   HX - HEAT INDEX
  VSB - VISIBILITY
$$




USA.gov is the U.S. government's official web portal to all federal, state and local government web resources and services.